ONEWEB-0699, 61605

Orbit data source: Space-Track

ONEWEB-0699, 61605 is a payload satellite owned by Eut. One Web (UK) in LEO that was launched on Sun, 20 Oct 2024 UTC via an FALCON 9 launch vehicle from the Air Force Western Test Range (AFWTR). Payload-class satellites include a variety of spacecraft equipped with specific instruments for various scientific and technological missions. These include communications satellites like Starlink; space stations such as the ISS; scientific satellites like the Hubble; Earth observation satellites from companies like Planet Labs, Umbra, and HawkEye 360; GPS; miniature CubeSats for education and research; and military/defense satellites.

Loading next visibility...
Identifier
61605, 2024-188M
Orbit
LEO
Last TLE update
13 hours ago
Origin
Manufacturer
One Web
Mission
Operational Commercial Communications
Bus & Motor
ARROW, Unknown motor
Mass
148 kg wet, ~140 kg dry
Launch date (UTC)
2024-10-20 (8 months ago)
Launch vehicle
FALCON 9
Launch site
Air Force Western Test Range (AFWTR)
Object type
Payload
Rocket body
Debris
Shape & HBR
Trap Box + 2 Pan, 5 m
Radar Cross Section
2.032 m², Large (>1 m²)

Expand to show TLE details & history

TLE from 13 hours ago
0 ONEWEB-0699
1 61605U 24188M   25181.81828929 -.00000657  00000-0 -19190-2 0  9997
2 61605  87.8824 106.3251 0002607  74.9299 285.2116 13.10371236 37293
Epoch: 2025-06-30T19:38Z
TLE epoch observation values (Epoch: 2025-06-30T19:38:20.194Z)
Latitude
-0.0001°
Longitude
-107.38168°
Altitude
1,224.091 km
Speed
7.243 km/s
True Right ascension
07h 05m 18s
True Declination
0° 00' 00"
Sunlit
Object was in daylight at epoch
Visualization orbit readout
Latitude
-5.83025°
Longitude
-107.70308°
Altitude
1,225.187 km
Speed
7.242 km/s
Apparent Right ascension
07h 27m 42s
Apparent Declination
-21° 22' 49"
Sunlit
Object is in daylight
Visualization observer readout
Local Sidereal Time
20:04:22
Azimuth
25.554° NE
Elevation
-69.885°
Doppler factor
1
Orbital elements
Apogee altitude
1,220.824 km
Perigee altitude
1,216.863 km
Semi-major axis
7,596.98 km
Eccentricity
0.00026
Inclination
87.8824°
RAAN
106.3251°
Arg. of periapsis
74.9299°
True anomaly
Unknown
Mean anomaly
285.2116°
Eccentric anomaly
Unknown
Mean motion
3.27779 °/min
Orbital period
109.83 mins
BSTAR
-0.001919
Loading maneuver chart data...
Loading SW <> Apogee altitude chart data...
Loading historical data...
Loading historical data...
Loading historical data...
Loading historical data...
Loading historical data...
Loading historical data...
Loading historical data...

ONEWEB-0699 Visibility forecast

Observer location: undefined°, undefined°

Span
Click to sort rows by Start time (UTC) header in descending order
Start Az.
Max El. time (UTC)
Max El. Az.
Max El.
End time (UTC)
End Az.
7 mins2025-07-01 09:06:14.983Z317.633° NNW2025-07-01 09:09:14.983Z292.618° NW14.312°2025-07-01 09:13:14.983Z258.829° W
7 mins2025-07-01 17:48:14.983Z97.263° ESE2025-07-01 17:51:14.983Z69.024° E16.771°2025-07-01 17:55:14.983Z35.288° NE
13 mins2025-07-01 19:34:14.983Z184.671° SSW2025-07-01 19:40:14.983Z305.211° NW44.38°2025-07-01 19:47:14.983Z358.526° N
4 mins2025-07-01 21:29:14.983Z274.507° WNW2025-07-01 21:31:14.983Z291.431° WNW12.391°2025-07-01 21:33:14.983Z308.14° NW
5 mins2025-07-02 05:17:14.983Z54.563° ENE2025-07-02 05:19:14.983Z71.871° E13.24°2025-07-02 05:22:14.983Z96.834° ESE
13 mins2025-07-02 07:04:14.983Z1.422° NNE2025-07-02 07:10:14.983Z98.156° ESE44.843°2025-07-02 07:17:14.983Z178.51° S
|